When you browse on this site, cookies collect data to enhance your experience and personalize the content and advertising you see.
Visit our Privacy Policy to learn more. By continuing to use the site, you agree to this use of cookies and data.
  • In Hungary
  • List of Countries
  • For 7 days
  • Water Temperature
  • Satellite Maps
  • Weather Map
  • News
  • Weather Widgets
  • user-avatar
    Login

    Hourly Weather Potochyshche

    Today, 17 July, Wednesday

    Time Temperature Precipitation Wind Pressure Humidity
    00:00 +18°C° 0.3 mm 1 mps 732 mmHg 94%
    01:00 +17°C° 0 mm 3 mps 732 mmHg 96%
    02:00 +16°C° 0.3 mm 3 mps 732 mmHg 98%
    03:00 +16°C° 0 mm 3 mps 732 mmHg 98%
    04:00 +16°C° 0 mm 3 mps 732 mmHg 98%
    05:00 +16°C° 0 mm 3 mps 732 mmHg 98%
    06:00 +15°C° 0 mm 4 mps 732 mmHg 98%
    07:00 +15°C° 0 mm 5 mps 732 mmHg 97%
    08:00 +15°C° 0 mm 4 mps 732 mmHg 98%
    09:00 +15°C° 0 mm 4 mps 732 mmHg 96%
    10:00 +17°C° 0 mm 4 mps 733 mmHg 93%
    11:00 +18°C° 0 mm 4 mps 733 mmHg 88%
    12:00 +19°C° 0 mm 3 mps 733 mmHg 85%
    13:00 +20°C° 0.1 mm 3 mps 733 mmHg 80%
    14:00 +20°C° 0 mm 2 mps 732 mmHg 78%
    15:00 +21°C° 0 mm 2 mps 732 mmHg 81%
    16:00 +21°C° 0 mm 2 mps 732 mmHg 73%
    17:00 +21°C° 0 mm 3 mps 731 mmHg 78%
    18:00 +21°C° 0 mm 3 mps 731 mmHg 85%
    19:00 +20°C° 0 mm 3 mps 731 mmHg 86%
    20:00 +19°C° 0 mm 3 mps 732 mmHg 91%
    21:00 +18°C° 0 mm 3 mps 732 mmHg 92%
    22:00 +17°C° 0 mm 3 mps 732 mmHg 94%
    23:00 +17°C° 0 mm 3 mps 732 mmHg 95%

    Tomorrow, 18 July, Thursday

    Time Temperature Precipitation Wind Pressure Humidity
    00:00 +16°C° 0 mm 3 mps 732 mmHg 96%
    01:00 +16°C° 0 mm 3 mps 732 mmHg 96%
    02:00 +14°C° 0 mm 3 mps 733 mmHg 97%
    03:00 +13°C° 0 mm 3 mps 733 mmHg 99%
    04:00 +13°C° 0 mm 3 mps 733 mmHg 100%
    05:00 +13°C° 0 mm 3 mps 733 mmHg 100%
    06:00 +13°C° 0 mm 4 mps 733 mmHg 100%
    07:00 +14°C° 0 mm 4 mps 733 mmHg 99%
    08:00 +14°C° 0 mm 4 mps 734 mmHg 98%
    09:00 +15°C° 0 mm 4 mps 734 mmHg 97%
    10:00 +17°C° 0 mm 4 mps 734 mmHg 95%
    11:00 +17°C° 0 mm 5 mps 735 mmHg 88%
    12:00 +19°C° 0 mm 4 mps 735 mmHg 88%
    13:00 +20°C° 0 mm 4 mps 735 mmHg 84%
    14:00 +20°C° 0 mm 4 mps 735 mmHg 82%
    15:00 +20°C° 0 mm 3 mps 735 mmHg 80%
    16:00 +20°C° 0 mm 3 mps 735 mmHg 80%
    17:00 +20°C° 0 mm 2 mps 735 mmHg 77%
    18:00 +20°C° 0 mm 2 mps 735 mmHg 81%
    19:00 +21°C° 0 mm 1 mps 735 mmHg 85%
    20:00 +18°C° 0 mm 0 mps 735 mmHg 86%
    21:00 +20°C° 0 mm 1 mps 735 mmHg 85%
    22:00 +19°C° 0 mm 1 mps 736 mmHg 87%
    23:00 +19°C° 0 mm 1 mps 736 mmHg 89%

    Day after tomorrow, 19 July, Friday

    Time Temperature Precipitation Wind Pressure Humidity
    00:00 +16°C° 0 mm 0 mps 736 mmHg 91%
    01:00 +16°C° 0 mm 0 mps 736 mmHg 92%
    02:00 +15°C° 0 mm 0 mps 736 mmHg 93%
    03:00 +16°C° 0 mm 1 mps 736 mmHg 95%
    04:00 +15°C° 0 mm 1 mps 736 mmHg 96%
    05:00 +15°C° 0 mm 1 mps 736 mmHg 98%
    06:00 +15°C° 0 mm 1 mps 736 mmHg 100%
    07:00 +16°C° 0 mm 1 mps 737 mmHg 98%
    08:00 +18°C° 0 mm 2 mps 737 mmHg 97%
    09:00 +19°C° 0 mm 3 mps 737 mmHg 93%
    10:00 +20°C° 0 mm 3 mps 737 mmHg 93%
    11:00 +21°C° 0 mm 3 mps 737 mmHg 94%
    12:00 +23°C° 0 mm 2 mps 737 mmHg 92%
    13:00 +23°C° 0 mm 2 mps 736 mmHg 89%
    14:00 +24°C° 0 mm 3 mps 736 mmHg 87%

    20 July, Saturday

    Time Temperature Precipitation Wind Pressure Humidity

    21 July, Sunday

    Time Temperature Precipitation Wind Pressure Humidity

    22 July, Monday

    Time Temperature Precipitation Wind Pressure Humidity
    Show more